CAPE
nan nan nan nan nan nan nan nan nan nan nan nan nan nan nan nan nan nan nan nan nan nan nan nan nan nan nan nan nan nan nan nan nan nan 1 4 12 12 18 23 23 28 31 34 34 38 46 55 55 57 60 59 68 68 78 88 88 91 97 98 98 93 99 105 105 112 121 132 147 147 154 164 175 175 189 200 209 209 211 210 210 203 212 231 231 275
nan nan nan nan nan nan nan nan nan nan nan nan nan nan nan nan nan nan nan nan nan nan nan nan nan nan nan nan nan nan nan nan nan nan 0 3 9 9 16 21 21 25 32 36 36 41 48 49 49 50 50 50 54 54 63 78 78 83 84 84 84 85 86 91 91 97 109 123 147 147 163 169 179 179 184 185 180 180 173 168 168 164 169 193 193 231
nan nan nan nan nan nan nan nan nan nan nan nan nan nan nan nan nan nan nan nan nan nan nan nan nan nan nan nan nan nan nan nan nan nan 0 3 7 7 11 18 18 24 32 36 36 42 45 46 46 45 48 50 54 54 63 71 71 75 78 74 74 76 77 75 75 83 95 118 143 143 166 181 193 193 189 183 172 172 155 157 157 166 175 188 188 196
nan nan nan nan nan nan nan nan nan nan nan nan nan nan nan nan nan nan nan nan nan nan nan nan nan nan nan nan nan nan nan nan nan nan 1 2 6 6 10 15 15 24 33 38 38 41 40 39 39 38 43 50 58 58 62 66 66 70 72 69 69 66 68 69 69 77 89 109 134 134 156 178 187 187 190 177 170 170 166 179 179 196 202 210 210 211
nan nan nan nan nan nan nan nan nan nan nan nan nan nan nan nan nan nan nan nan nan nan nan nan nan nan nan nan nan nan nan nan nan nan 0 1 3 3 8 16 16 26 34 37 37 36 34 33 33 34 40 52 60 60 67 68 68 68 69 66 66 63 63 67 67 74 92 111 124 124 142 162 176 176 189 193 196 196 209 228 228 254 268 269 269 267
nan nan nan nan nan nan nan nan nan nan nan nan nan nan nan nan nan nan nan nan nan nan nan nan nan nan nan nan nan nan nan nan nan nan nan 0 1 1 8 18 18 29 35 33 33 28 26 27 27 30 40 49 60 60 64 70 70 64 64 57 57 51 54 61 61 73 90 113 133 133 150 164 182 182 199 217 225 225 233 260 260 296 303 317 317 303
nan nan nan nan nan nan nan nan nan nan nan nan nan nan nan nan nan nan nan nan nan nan nan nan nan nan nan nan nan nan nan nan nan nan nan nan 1 1 10 21 21 31 32 27 27 21 19 20 20 30 40 48 55 55 60 63 63 61 51 48 48 47 50 62 62 78 100 123 144 144 162 181 192 192 216 235 243 243 237 248 248 277 287 289 289 296
nan nan nan nan nan nan nan nan nan nan nan nan nan nan nan nan nan nan nan nan nan nan nan nan nan nan nan nan nan nan nan nan nan nan nan nan 3 3 14 25 25 23 14 7 7 5 7 12 12 18 29 35 43 43 46 44 44 39 34 35 35 40 56 72 72 94 111 138 156 156 168 179 189 189 194 191 174 174 163 162 162 185 205 238 238 271
nan 0 nan nan nan nan nan nan nan nan nan nan nan nan nan nan nan nan nan nan nan nan nan nan nan nan nan nan nan nan nan nan nan nan nan nan 1 1 16 23 23 13 4 2 2 1 3 5 5 11 17 23 29 29 30 28 28 25 26 32 32 42 57 77 77 100 117 133 150 150 161 169 174 174 166 169 164 164 165 177 177 195 217 255 255 295
0 nan nan nan nan nan nan nan nan nan 0 nan nan nan nan nan nan nan 1 nan nan nan nan nan nan nan nan nan nan nan nan nan nan nan 1 1 17 17 13 1 1 nan nan 0 0 nan 0 2 2 5 11 16 18 18 18 17 17 18 23 32 32 48 65 84 84 106 124 132 145 145 161 158 163 163 160 157 170 170 189 202 202 208 225 250 250 280
1 nan nan nan nan nan nan nan 0 0 1 nan nan nan nan nan nan nan 3 7 7 2 0 nan nan nan nan nan nan nan nan nan nan nan nan nan 0 0 nan nan nan nan nan nan nan nan nan 0 0 3 8 10 11 11 11 11 11 16 25 41 41 54 74 89 89 103 120 129 140 140 148 152 149 149 152 166 187 187 201 208 208 212 216 234 234 251
1 nan 0 nan nan nan nan 1 5 5 5 1 4 4 4 nan nan nan 1 5 5 4 2 1 1 nan nan nan nan nan nan nan nan nan nan nan nan nan nan nan nan nan nan nan nan nan nan 0 0 2 4 4 6 6 6 7 7 16 31 47 47 66 81 92 92 104 114 122 127 127 131 138 152 152 161 174 198 198 212 213 213 211 222 222 222 240
1 1 2 2 2 4 3 5 6 6 4 3 6 6 7 nan nan nan 0 2 2 3 0 nan nan 0 nan nan nan nan nan nan nan nan nan nan nan nan nan nan nan nan nan nan nan nan nan 0 0 2 2 1 2 2 5 10 10 24 39 57 57 72 83 97 97 100 99 104 113 113 124 132 151 151 171 186 203 203 204 205 205 209 225 219 219 243
2 3 2 2 2 2 2 0 0 0 1 1 3 3 7 2 1 1 3 5 5 7 4 1 1 1 1 nan nan nan nan nan nan nan nan nan nan nan nan nan nan nan nan nan nan nan nan nan nan nan 0 0 0 0 4 15 15 32 47 64 64 74 88 94 94 91 84 84 90 90 108 128 147 147 168 184 193 193 187 187 187 193 216 227 227 246
2 5 2 0 0 nan nan nan nan nan 1 2 5 5 4 3 6 6 11 11 11 10 7 3 3 4 2 nan nan nan nan nan nan nan nan nan nan nan nan nan nan nan nan nan nan nan nan nan nan nan nan nan nan nan 4 19 19 45 54 69 69 79 84 86 86 75 70 73 77 77 91 110 138 138 151 174 170 170 163 170 170 183 218 217 217 244
5 14 9 6 6 2 1 2 5 5 7 8 9 9 9 9 11 11 11 16 16 12 9 6 6 5 3 5 nan nan nan nan nan nan nan nan nan nan nan nan nan nan nan nan nan nan nan nan nan nan nan nan 2 2 11 28 28 48 59 70 70 78 76 69 69 63 58 57 70 70 85 109 130 130 144 153 150 150 148 152 152 179 210 231 231 242
14 15 9 7 7 5 5 6 12 12 16 15 17 17 14 12 13 13 5 7 7 12 8 6 6 6 2 3 nan nan nan nan nan nan nan nan nan nan nan nan nan nan nan nan nan nan nan nan nan nan nan nan 4 4 13 31 31 46 62 70 70 68 64 58 58 51 50 52 66 66 78 96 115 115 125 131 127 127 138 151 151 169 199 232 232 241
11 11 7 6 6 6 8 7 8 8 12 14 21 21 15 15 9 9 3 5 5 9 8 7 7 6 3 0 2 2 nan nan nan nan nan nan nan nan nan nan nan nan nan nan nan nan nan nan nan nan nan 1 6 6 15 30 30 46 59 61 61 57 51 46 46 45 46 48 54 54 64 81 89 89 103 110 117 117 123 142 142 169 191 215 215 222
9 16 13 8 8 6 9 10 12 12 11 16 20 20 18 12 7 7 7 6 6 7 6 7 7 5 3 2 4 4 nan nan nan nan nan nan nan nan nan nan nan nan nan nan nan nan nan nan nan nan nan 2 7 7 19 33 33 45 54 54 54 45 40 38 38 39 40 42 44 44 48 57 75 75 83 95 107 107 119 131 131 150 173 188 188 204
13 17 14 7 7 4 8 13 10 10 12 21 12 12 13 12 9 9 8 9 9 8 7 3 3 3 1 4 0 0 nan nan nan nan nan nan nan nan nan nan nan nan nan nan nan nan nan nan nan nan nan 2 9 9 21 35 35 40 46 42 42 37 35 34 34 34 36 37 38 38 39 42 56 56 74 81 99 99 111 126 126 138 152 167 167 176
14 10 9 10 10 8 8 8 9 9 17 22 10 10 20 17 17 17 20 12 12 7 3 4 4 2 5 7 3 3 nan nan nan nan nan nan nan nan nan nan nan nan nan nan nan nan nan nan nan nan nan 3 13 13 23 32 32 35 34 33 33 34 32 31 31 30 30 32 32 32 34 37 40 40 55 72 83 83 101 118 118 130 134 146 146 155
8 3 3 9 9 6 5 3 8 8 15 24 3 3 4 7 16 16 14 10 10 8 6 6 6 6 nan 1 nan nan nan nan nan nan nan nan nan nan nan nan nan nan nan nan nan nan nan nan nan nan nan 6 14 14 20 22 22 22 24 25 25 25 25 24 24 23 23 26 28 28 30 32 32 32 44 60 83 83 94 109 109 119 124 128 128 135
0 nan nan nan nan nan nan nan nan nan 1 6 3 3 4 6 15 15 14 9 9 13 21 15 15 nan nan nan nan nan nan nan nan nan nan nan nan nan nan nan nan nan nan nan nan nan nan nan nan nan nan 7 10 10 13 12 12 12 15 18 18 19 19 17 17 18 18 22 24 24 26 28 29 29 34 54 72 72 82 97 97 105 109 116 116 122
nan nan nan nan nan nan nan nan nan nan nan nan nan nan 0 1 nan nan 2 8 8 5 0 nan nan nan nan nan nan nan nan nan nan nan nan nan nan nan nan nan nan nan nan nan nan nan nan nan nan nan nan 3 5 5 6 6 6 7 11 13 13 14 13 12 12 13 13 17 20 20 23 25 27 27 31 39 60 60 71 80 80 88 98 100 100 109
nan nan nan nan nan nan nan nan nan nan nan nan nan nan nan nan 1 1 1 nan nan nan nan nan nan nan nan nan nan nan nan nan nan nan nan nan nan nan nan nan nan nan nan nan nan nan nan nan nan nan nan 0 1 1 1 2 2 5 8 10 10 9 9 8 8 8 9 13 17 17 21 24 26 26 28 31 43 43 54 60 60 72 85 92 92 100
nan nan nan nan nan 1 19 36 46 46 35 19 nan nan nan nan nan nan nan nan nan nan nan nan nan nan nan nan nan nan nan nan nan nan nan nan nan nan nan nan nan nan nan nan nan nan nan nan nan nan nan nan nan nan 0 1 1 3 5 6 6 5 5 4 4 5 7 10 15 15 20 23 24 24 26 27 31 31 41 47 47 63 77 83 83 80
49 54 72 80 80 89 108 132 146 146 171 170 115 115 88 nan 0 0 0 nan nan nan nan nan nan nan nan nan nan nan nan nan nan nan nan nan nan nan nan nan nan nan nan nan nan nan nan nan nan nan nan nan nan nan nan 1 1 2 3 3 3 2 2 2 2 3 6 9 13 13 16 20 20 20 21 21 23 23 37 45 45 61 72 75 75 70
59 62 63 66 66 76 90 111 130 130 140 147 141 141 124 0 0 0 1 nan nan nan nan nan nan nan nan nan nan nan nan nan nan nan nan nan nan nan nan nan nan 0 nan nan nan nan 0 nan nan nan nan nan nan nan nan 0 0 0 0 0 0 0 0 0 0 1 4 7 9 9 12 15 18 18 19 19 20 20 32 46 46 67 71 56 56 30
14 7 2 13 13 28 51 81 88 88 89 86 103 103 52 nan 1 1 nan nan nan nan nan nan nan nan nan nan nan nan nan nan nan nan nan nan nan nan nan nan nan 0 0 nan nan nan nan nan nan nan nan nan nan nan nan nan nan nan nan nan nan nan nan nan nan 0 2 4 6 6 9 12 15 15 17 18 21 21 30 52 52 65 60 45 45 29
nan nan nan 0 0 7 20 18 13 13 27 50 66 66 47 0 6 6 0 nan nan nan nan nan nan nan nan nan nan nan nan nan nan nan nan nan nan nan nan 0 0 0 2 0 0 nan nan nan nan nan nan nan nan nan nan nan nan nan nan nan nan nan nan nan nan nan 1 2 4 4 7 9 12 12 15 17 21 21 27 47 47 49 38 33 33 28
7 3 0 0 0 1 nan nan 0 0 5 17 34 34 31 3 5 5 nan nan nan nan nan nan nan nan nan nan nan nan nan nan nan nan nan 0 0 0 0 0 0 1 4 2 2 0 nan nan nan nan nan nan nan nan nan nan nan nan nan nan nan nan nan nan nan nan 0 1 2 2 4 7 9 9 13 17 20 20 26 42 42 45 34 36 36 37
8 5 4 1 1 nan nan nan nan nan nan nan 0 0 4 4 nan nan nan nan nan nan nan nan nan nan nan 0 nan nan nan nan nan nan 9 6 3 3 2 2 2 2 3 10 10 6 0 0 0 nan nan nan nan nan nan nan nan nan nan nan nan nan nan nan nan nan nan nan 0 0 1 3 6 6 9 14 18 18 20 25 25 40 35 40 40 38
3 2 3 1 1 nan nan nan nan nan nan nan 0 0 2 4 2 2 nan nan nan nan nan nan nan nan nan nan 0 0 nan nan 3 3 13 7 3 3 2 2 2 3 4 4 4 4 2 1 1 nan nan nan nan nan nan nan nan nan nan nan nan nan nan nan nan nan nan nan nan nan 0 2 4 4 8 12 15 15 19 24 24 36 44 25 25 28
4 3 3 1 1 nan nan nan nan nan nan nan 0 0 2 1 2 2 1 nan nan nan nan nan nan nan nan nan 0 0 0 nan 6 6 11 5 3 3 3 4 4 4 6 4 4 2 1 0 0 0 nan nan nan nan nan nan nan nan nan nan nan nan nan nan nan nan nan nan nan nan nan nan 3 3 5 8 12 12 17 23 23 29 37 27 27 26
6 5 1 nan nan nan nan nan nan nan nan nan 0 0 2 0 nan nan 0 nan nan nan nan nan nan nan nan 2 3 3 2 nan 0 0 6 3 3 3 3 4 4 8 11 4 4 2 2 1 1 2 0 nan nan nan nan nan nan nan nan nan nan nan nan nan nan nan nan nan nan nan nan nan 0 0 1 5 10 10 17 20 20 23 29 34 34 28
2 1 1 0 0 nan nan nan nan nan 0 0 nan nan 0 nan nan nan nan nan nan nan nan nan nan nan nan nan 3 3 5 nan nan nan 0 0 1 1 2 4 4 8 10 5 5 3 3 2 2 3 2 nan nan nan nan nan nan nan nan nan nan nan nan nan nan nan nan nan nan nan nan nan 0 0 1 6 12 12 15 17 17 18 21 27 27 29
1 1 1 1 1 0 1 1 2 2 3 3 2 2 nan nan nan nan nan nan nan nan nan 0 0 0 nan nan nan nan nan nan nan nan 0 0 nan nan 1 3 3 11 9 5 5 4 3 2 2 2 0 nan nan nan nan nan nan nan nan nan nan nan nan nan nan nan nan nan nan nan nan nan 0 0 2 7 9 9 12 14 14 14 17 22 22 25
1 2 3 2 2 2 3 5 7 7 8 8 3 3 nan nan nan nan nan nan nan nan nan nan nan nan 0 2 1 1 1 0 0 0 1 1 0 0 0 1 1 8 6 3 3 2 2 2 2 1 0 nan nan nan nan nan nan nan nan nan nan nan nan nan nan nan nan nan nan nan nan nan 0 0 1 2 2 2 3 3 3 7 13 15 15 20
3 3 4 6 6 7 8 9 9 9 8 5 nan nan nan nan nan nan nan nan nan nan nan nan nan nan nan nan 0 0 1 1 1 1 1 1 nan nan nan 0 0 2 0 nan nan nan nan 1 1 1 1 0 nan nan nan nan nan nan nan nan nan nan nan nan nan nan nan nan nan nan nan nan nan nan 0 0 1 1 2 2 2 4 5 5 5 12
3 4 5 7 7 9 11 13 9 9 nan nan nan nan nan nan nan nan nan nan nan nan nan nan nan nan nan nan nan nan nan nan nan nan nan nan nan nan nan nan nan nan nan nan nan nan 0 2 2 2 2 0 0 0 nan nan nan nan nan nan nan nan nan nan nan nan nan nan nan nan nan nan nan nan 0 0 1 1 2 1 1 2 3 3 3 3
3 3 4 7 7 9 9 9 nan nan nan nan nan nan nan nan nan nan nan nan nan nan nan nan nan nan nan nan nan nan nan nan nan nan nan nan nan nan nan nan nan nan nan nan nan nan 0 2 2 2 1 0 0 0 nan nan nan nan 1 nan nan nan nan nan nan nan nan nan nan nan nan 0 1 1 1 1 0 0 1 1 1 1 3 3 3 2
5 4 4 5 5 6 6 3 nan nan nan nan nan nan nan nan nan nan nan nan nan nan nan nan nan nan nan nan nan nan nan nan nan nan nan nan nan nan nan nan nan nan nan nan nan nan 1 3 3 2 1 0 0 0 nan nan nan nan nan nan nan nan nan nan nan nan nan nan nan nan 0 0 1 1 2 1 0 0 1 1 1 4 5 2 2 1
5 4 4 5 5 5 6 4 5 5 1 0 0 0 nan nan nan nan 1 nan nan nan nan nan nan nan nan nan nan nan nan nan nan nan nan nan nan nan nan nan nan nan nan nan nan nan 0 1 1 0 nan 0 0 0 nan nan nan nan nan nan nan nan nan nan nan nan nan nan nan nan nan 0 1 1 1 1 0 0 0 2 2 7 6 1 1 1
2 3 3 3 3 3 4 4 4 4 2 1 0 0 nan nan nan nan nan nan nan nan nan nan nan nan nan nan nan nan nan nan nan nan nan nan nan nan nan nan nan nan nan nan nan nan nan nan nan nan nan 0 0 0 nan nan nan nan nan nan nan nan nan nan nan nan nan nan nan nan 0 1 2 2 2 1 0 0 0 0 0 nan 1 0 0 0
nan 0 2 4 4 3 3 5 1 1 0 1 nan nan nan nan nan nan nan nan nan nan nan nan nan nan nan nan nan nan nan nan nan nan nan nan 0 0 nan nan nan nan nan nan nan nan nan nan nan nan nan 0 nan nan nan nan nan nan nan nan nan nan nan nan nan nan nan nan nan nan 0 2 2 2 0 0 nan nan nan nan nan nan nan nan nan 0
nan 4 6 5 5 4 7 6 nan nan nan 0 nan nan nan nan nan nan nan nan nan nan nan nan nan nan 0 nan nan nan nan nan nan nan nan nan nan nan nan nan nan nan nan nan nan nan nan nan nan nan nan nan nan nan nan nan nan nan nan nan nan nan nan nan nan nan nan nan nan nan 0 3 2 2 0 nan nan nan nan nan nan nan nan nan nan nan
8 10 10 10 10 9 10 0 nan nan nan nan nan nan nan nan nan nan nan nan nan nan nan nan nan nan nan nan nan nan nan nan nan nan nan nan nan nan nan nan nan nan nan nan nan nan nan nan nan 0 0 nan nan nan nan nan nan nan nan nan nan nan nan nan nan nan nan nan 0 0 1 3 2 2 0 nan nan nan nan nan nan nan nan 0 0 0
8 9 9 9 9 13 6 nan nan nan nan nan nan nan nan nan nan nan nan nan nan nan nan nan nan nan nan nan nan nan nan nan nan nan nan nan nan nan nan nan nan nan nan nan nan nan nan nan nan nan nan nan nan nan nan nan nan nan nan nan nan nan nan nan nan nan nan 0 0 0 2 2 0 0 nan nan nan nan nan nan nan nan nan nan nan nan
7 7 7 7 7 5 nan nan nan nan nan nan nan nan nan nan 0 0 nan nan nan nan nan nan nan nan nan nan nan nan nan nan nan nan nan nan 1 1 nan nan nan nan nan nan nan nan nan nan nan nan nan nan nan nan nan nan nan nan nan nan nan nan nan nan nan nan nan nan 1 1 1 0 0 0 0 0 nan nan nan nan nan nan nan nan nan nan
6 7 7 9 9 5 0 nan nan nan nan nan nan nan nan nan nan nan nan nan nan nan nan nan nan nan nan nan nan nan nan nan nan nan nan nan 0 0 nan nan nan nan nan nan nan nan nan nan nan nan nan nan nan nan 0 nan nan nan nan nan nan nan nan nan nan nan nan nan 1 1 2 0 0 0 0 0 0 0 nan nan nan nan nan nan nan nan
8 8 9 6 6 3 nan nan nan nan nan nan nan nan nan nan nan nan nan nan nan nan nan nan nan nan nan nan nan nan nan nan nan nan nan 0 nan nan nan nan nan nan nan nan nan nan nan nan nan nan nan nan nan nan nan nan nan nan nan nan nan nan nan nan nan nan 0 0 0 0 1 0 0 0 0 1 0 0 nan nan nan nan nan nan nan nan
CIN
nan nan nan nan nan nan nan nan nan nan nan nan nan nan nan nan nan nan nan nan nan nan nan nan nan nan nan nan nan nan nan nan nan nan -0 -0 -0 -0 -0 -0 -0 -0 -0 -0 -0 -0 -0 -0 -0 -0 -0 -0 -0 -0 -0 -0 -0 -0 -0 -0 -0 -0 -0 -0 -0 -0 -0 -0 -0 -0 -0 -0 -0 -0 -0 -0 -0 -0 -0 -0 -0 -0 -0 -0 -0 -0
nan nan nan nan nan nan nan nan nan nan nan nan nan nan nan nan nan nan nan nan nan nan nan nan nan nan nan nan nan nan nan nan nan nan -0 -0 -0 -0 -0 -0 -0 -0 -0 -0 -0 -0 -0 -0 -0 -0 -0 -0 -0 -0 -0 -0 -0 -0 -0 -0 -0 -0 -0 -0 -0 -0 -0 -0 -0 -0 -0 -0 -0 -0 -0 -0 -0 -0 -0 -0 -0 -0 -0 -0 -0 -0
nan nan nan nan nan nan nan nan nan nan nan nan nan nan nan nan nan nan nan nan nan nan nan nan nan nan nan nan nan nan nan nan nan nan -0 -0 -0 -0 -0 -0 -0 -0 -0 -0 -0 -0 -0 -0 -0 -0 -0 -0 -0 -0 -0 -0 -0 -0 -0 -0 -0 -0 -0 -0 -0 -0 -0 -0 -0 -0 -0 -0 -0 -0 -0 -0 -0 -0 -0 -0 -0 -0 -0 -0 -0 -0
nan nan nan nan nan nan nan nan nan nan nan nan nan nan nan nan nan nan nan nan nan nan nan nan nan nan nan nan nan nan nan nan nan nan -0 -0 -0 -0 -0 -0 -0 -0 -0 -0 -0 -0 -0 -0 -0 -0 -0 -0 -0 -0 -0 -0 -0 -0 -0 -0 -0 -0 -0 -0 -0 -0 -0 -0 -0 -0 -0 -0 -0 -0 -0 -0 -0 -0 -0 -0 -0 -0 -0 -0 -0 -0
nan nan nan nan nan nan nan nan nan nan nan nan nan nan nan nan nan nan nan nan nan nan nan nan nan nan nan nan nan nan nan nan nan nan -0 -0 -0 -0 -0 -0 -0 -0 -0 -0 -0 -0 -0 -0 -0 -0 -0 -0 -0 -0 -0 -0 -0 -0 -0 -0 -0 -0 -0 -0 -0 -0 -0 -0 -0 -0 -0 -0 -0 -0 -0 -0 -0 -0 -0 -0 -0 -0 -0 -0 -0 -0
nan nan nan nan nan nan nan nan nan nan nan nan nan nan nan nan nan nan nan nan nan nan nan nan nan nan nan nan nan nan nan nan nan nan nan -0 -0 -0 -0 -0 -0 -0 -0 -0 -0 -0 -0 -0 -0 -0 -0 -0 -0 -0 -0 -0 -0 -0 -0 -0 -0 -0 -0 -0 -0 -0 -0 -0 -0 -0 -0 -0 -0 -0 -0 -0 -0 -0 -0 -0 -0 -0 -0 -0 -0 -0
nan nan nan nan nan nan nan nan nan nan nan nan nan nan nan nan nan nan nan nan nan nan nan nan nan nan nan nan nan nan nan nan nan nan nan nan -0 -0 -0 -0 -0 -0 -0 -0 -0 -0 -0 -0 -0 -0 -0 -0 -0 -0 -0 -0 -0 -0 -0 -0 -0 -0 -0 -0 -0 -0 -0 -0 -0 -0 -0 -0 -0 -0 -0 -0 -0 -0 -0 -0 -0 -0 -0 -0 -0 -0
nan nan nan nan nan nan nan nan nan nan nan nan nan nan nan nan nan nan nan nan nan nan nan nan nan nan nan nan nan nan nan nan nan nan nan nan -0 -0 -0 -0 -0 -0 -0 -0 -0 -0 -0 -0 -0 -0 -0 -0 -0 -0 -0 -0 -0 -0 -0 -0 -0 -0 -0 -0 -0 -0 -0 -0 -0 -0 -0 -0 -0 -0 -0 -0 -0 -0 -0 -0 -0 -0 -0 -0 -0 -0
nan -0 nan nan nan nan nan nan nan nan nan nan nan nan nan nan nan nan nan nan nan nan nan nan nan nan nan nan nan nan nan nan nan nan nan nan -0 -0 -0 -0 -0 -0 -0 -0 -0 -0 -0 -0 -0 -0 -0 -0 -0 -0 -0 -0 -0 -0 -0 -0 -0 -0 -0 -0 -0 -0 -0 -0 -0 -0 -0 -0 -0 -0 -0 -0 -0 -0 -0 -0 -0 -0 -0 -0 -0 -0
-0 nan nan nan nan nan nan nan nan nan -0 nan nan nan nan nan nan nan -0 nan nan nan nan nan nan nan nan nan nan nan nan nan nan nan -0 -0 -0 -0 -0 -0 -0 nan nan -0 -0 nan -0 -0 -0 -0 -0 -0 -0 -0 -0 -0 -0 -0 -0 -0 -0 -0 -0 -0 -0 -0 -0 -0 -0 -0 -0 -0 -0 -0 -0 -0 -0 -0 -0 -0 -0 -0 -0 -0 -0 -0
-0 nan nan nan nan nan nan nan -0 -0 -0 nan nan nan nan nan nan nan -0 -0 -0 -0 -0 nan nan nan nan nan nan nan nan nan nan nan nan nan -0 -0 nan nan nan nan nan nan nan nan nan -0 -0 -0 -0 -0 -0 -0 -0 -0 -0 -0 -0 -0 -0 -0 -0 -0 -0 -0 -0 -0 -0 -0 -0 -0 -0 -0 -0 -0 -0 -0 -0 -0 -0 -0 -0 -0 -0 -0
-0 nan -0 nan nan nan nan -0 -0 -0 -0 -1 -0 -0 -0 nan nan nan -4 -0 -0 -0 -0 -0 -0 nan nan nan nan nan nan nan nan nan nan nan nan nan nan nan nan nan nan nan nan nan nan -0 -0 -0 -0 -0 -0 -0 -0 -0 -0 -0 -0 -0 -0 -0 -0 -0 -0 -0 -0 -0 -0 -0 -0 -0 -0 -0 -0 -0 -0 -0 -0 -0 -0 -0 -0 -0 -0 -0
-0 -0 -0 -0 -0 -0 -0 -0 -0 -0 -0 -0 -0 -0 -0 nan nan nan -6 -1 -1 -0 -1 nan nan -0 nan nan nan nan nan nan nan nan nan nan nan nan nan nan nan nan nan nan nan nan nan -0 -0 -0 -0 -0 -0 -0 -0 -0 -0 -0 -0 -0 -0 -0 -0 -0 -0 -0 -0 -0 -0 -0 -0 -0 -0 -0 -0 -0 -0 -0 -0 -0 -0 -0 -0 -0 -0 -0
-0 -0 -1 -1 -1 -0 -1 -0 -0 -0 -0 -0 -0 -0 -0 -11 -14 -14 -3 -0 -0 -0 -0 -0 -0 -0 -0 nan nan nan nan nan nan nan nan nan nan nan nan nan nan nan nan nan nan nan nan nan nan nan -0 -0 -0 -0 -0 -0 -0 -0 -0 -0 -0 -0 -0 -0 -0 -0 -0 -0 -0 -0 -0 -0 -0 -0 -0 -0 -0 -0 -0 -0 -0 -0 -0 -0 -0 -0
-0 -0 -0 -0 -0 nan nan nan nan nan -0 -0 -0 -0 -5 -10 -1 -1 -0 -0 -0 -0 -0 -0 -0 -0 -0 nan nan nan nan nan nan nan nan nan nan nan nan nan nan nan nan nan nan nan nan nan nan nan nan nan nan nan -0 -0 -0 -0 -0 -0 -0 -0 -0 -0 -0 -0 -0 -0 -0 -0 -0 -0 -0 -0 -0 -0 -0 -0 -0 -0 -0 -0 -0 -0 -0 -0
-2 -0 -0 -0 -0 -0 -0 -0 -0 -0 -0 -0 -0 -0 -1 -0 -0 -0 -0 -0 -0 -0 -0 -0 -0 -0 -0 -0 nan nan nan nan nan nan nan nan nan nan nan nan nan nan nan nan nan nan nan nan nan nan nan nan -0 -0 -0 -0 -0 -0 -0 -0 -0 -0 -0 -0 -0 -0 -0 -0 -0 -0 -0 -0 -0 -0 -0 -0 -0 -0 -0 -0 -0 -0 -0 -0 -0 -0
-0 -1 -1 -0 -0 -0 -0 -0 -0 -0 -0 -0 -0 -0 -0 -1 -0 -0 -3 -0 -0 -0 -0 -0 -0 -0 -0 -0 nan nan nan nan nan nan nan nan nan nan nan nan nan nan nan nan nan nan nan nan nan nan nan nan -0 -0 -0 -0 -0 -0 -0 -0 -0 -0 -0 -0 -0 -0 -0 -0 -0 -0 -0 -0 -0 -0 -0 -0 -0 -0 -0 -0 -0 -0 -0 -0 -0 -0
-1 -2 -2 -0 -0 -1 -0 -0 -0 -0 -3 -1 -0 -0 -1 -1 -1 -1 -1 -0 -0 -0 -0 -0 -0 -0 -0 -0 -0 -0 nan nan nan nan nan nan nan nan nan nan nan nan nan nan nan nan nan nan nan nan nan -0 -0 -0 -0 -0 -0 -0 -0 -0 -0 -0 -0 -0 -0 -0 -0 -0 -0 -0 -0 -0 -0 -0 -0 -0 -0 -0 -0 -0 -0 -0 -0 -0 -0 -0
-2 -1 -0 -2 -2 -3 -1 -3 -2 -2 -1 -0 -0 -0 -0 -0 -0 -0 -0 -0 -0 -0 -0 -0 -0 -0 -0 -0 -0 -0 nan nan nan nan nan nan nan nan nan nan nan nan nan nan nan nan nan nan nan nan nan -0 -0 -0 -0 -0 -0 -0 -0 -0 -0 -0 -0 -0 -0 -0 -0 -0 -0 -0 -0 -0 -0 -0 -0 -0 -0 -0 -0 -0 -0 -0 -0 -0 -0 -0
-1 -0 -0 -0 -0 -1 -1 -0 -0 -0 -0 -0 -5 -5 -0 -0 -0 -0 -0 -0 -0 -0 -0 -0 -0 -0 -0 -0 -6 -6 nan nan nan nan nan nan nan nan nan nan nan nan nan nan nan nan nan nan nan nan nan -0 -0 -0 -0 -0 -0 -0 -0 -0 -0 -0 -0 -0 -0 -0 -0 -0 -0 -0 -0 -0 -0 -0 -0 -0 -0 -0 -0 -0 -0 -0 -0 -0 -0 -0
-0 -0 -0 -0 -0 -0 -0 -0 -0 -0 -0 -2 -5 -5 -0 -0 -0 -0 -0 -0 -0 -0 -0 -0 -0 -0 -0 -0 -0 -0 nan nan nan nan nan nan nan nan nan nan nan nan nan nan nan nan nan nan nan nan nan -0 -0 -0 -0 -0 -0 -0 -0 -0 -0 -0 -0 -0 -0 -0 -0 -0 -0 -0 -0 -0 -0 -0 -0 -0 -0 -0 -0 -0 -0 -0 -0 -0 -0 -0
-0 -0 -0 -0 -0 -0 -0 -0 -0 -0 -0 -0 -1 -1 -1 -1 -0 -0 -0 -0 -0 -0 -0 -0 -0 -0 nan -0 nan nan nan nan nan nan nan nan nan nan nan nan nan nan nan nan nan nan nan nan nan nan nan -0 -0 -0 -0 -0 -0 -0 -0 -0 -0 -0 -0 -0 -0 -0 -0 -0 -0 -0 -0 -0 -0 -0 -0 -0 -0 -0 -0 -0 -0 -0 -0 -0 -0 -0
-3 nan nan nan nan nan nan nan nan nan -0 -0 -0 -0 -0 -0 -0 -0 -0 -0 -0 -0 -0 -0 -0 nan nan nan nan nan nan nan nan nan nan nan nan nan nan nan nan nan nan nan nan nan nan nan nan nan nan -0 -0 -0 -0 -0 -0 -0 -0 -0 -0 -0 -0 -0 -0 -0 -0 -0 -0 -0 -0 -0 -0 -0 -0 -0 -0 -0 -0 -0 -0 -0 -0 -0 -0 -0
nan nan nan nan nan nan nan nan nan nan nan nan nan nan -18 -20 nan nan -1 -0 -0 -0 -0 nan nan nan nan nan nan nan nan nan nan nan nan nan nan nan nan nan nan nan nan nan nan nan nan nan nan nan nan -0 -0 -0 -0 -0 -0 -0 -0 -0 -0 -0 -0 -0 -0 -0 -0 -0 -0 -0 -0 -0 -0 -0 -0 -0 -0 -0 -0 -0 -0 -0 -0 -0 -0 -0
nan nan nan nan nan nan nan nan nan nan nan nan nan nan nan nan -1 -1 -1 nan nan nan nan nan nan nan nan nan nan nan nan nan nan nan nan nan nan nan nan nan nan nan nan nan nan nan nan nan nan nan nan -0 -0 -0 -0 -0 -0 -0 -0 -0 -0 -0 -0 -0 -0 -0 -0 -0 -0 -0 -0 -0 -0 -0 -0 -0 -0 -0 -0 -0 -0 -0 -0 -0 -0 -0
nan nan nan nan nan -0 -0 -0 -0 -0 -0 -0 nan nan nan nan nan nan nan nan nan nan nan nan nan nan nan nan nan nan nan nan nan nan nan nan nan nan nan nan nan nan nan nan nan nan nan nan nan nan nan nan nan nan -0 -0 -0 -0 -0 -0 -0 -0 -0 -0 -0 -0 -0 -0 -0 -0 -0 -0 -0 -0 -0 -0 -0 -0 -0 -0 -0 -0 -0 -0 -0 -0
-0 -0 -0 -0 -0 -0 -0 -0 -0 -0 -0 -0 -0 -0 -0 nan -0 -0 -0 nan nan nan nan nan nan nan nan nan nan nan nan nan nan nan nan nan nan nan nan nan nan nan nan nan nan nan nan nan nan nan nan nan nan nan nan -0 -0 -0 -0 -0 -0 -0 -0 -0 -0 -0 -0 -0 -0 -0 -0 -0 -0 -0 -0 -0 -0 -0 -0 -0 -0 -0 -0 -0 -0 -0
-0 -0 -0 -0 -0 -0 -0 -0 -0 -0 -0 -0 -0 -0 -0 -26 -0 -0 -0 nan nan nan nan nan nan nan nan nan nan nan nan nan nan nan nan nan nan nan nan nan nan -0 nan nan nan nan -0 nan nan nan nan nan nan nan nan -0 -0 -0 -0 -0 -0 -0 -0 -0 -0 -0 -0 -0 -0 -0 -0 -0 -0 -0 -0 -0 -0 -0 -0 -0 -0 -0 -0 -0 -0 -0
-11 -18 -0 -0 -0 -0 -0 -0 -0 -0 -0 -0 -0 -0 -0 nan -0 -0 nan nan nan nan nan nan nan nan nan nan nan nan nan nan nan nan nan nan nan nan nan nan nan -0 -0 nan nan nan nan nan nan nan nan nan nan nan nan nan nan nan nan nan nan nan nan nan nan -0 -0 -0 -0 -0 -0 -0 -0 -0 -0 -0 -0 -0 -0 -0 -0 -0 -0 -0 -0 -0
nan nan nan -0 -0 -0 -0 -0 -0 -0 -0 -0 -0 -0 -0 -0 -0 -0 -0 nan nan nan nan nan nan nan nan nan nan nan nan nan nan nan nan nan nan nan nan -0 -0 -0 -0 -0 -0 nan nan nan nan nan nan nan nan nan nan nan nan nan nan nan nan nan nan nan nan nan -0 -0 -0 -0 -0 -0 -0 -0 -0 -0 -0 -0 -0 -0 -0 -0 -0 -0 -0 -0
-0 -0 -0 -26 -26 -29 nan nan -0 -0 -0 -0 -0 -0 -0 -0 -0 -0 nan nan nan nan nan nan nan nan nan nan nan nan nan nan nan nan nan -0 -0 -0 -0 -0 -0 -0 -0 -0 -0 -0 nan nan nan nan nan nan nan nan nan nan nan nan nan nan nan nan nan nan nan nan -0 -0 -0 -0 -0 -0 -0 -0 -0 -0 -0 -0 -0 -0 -0 -0 -0 -0 -0 -0
-0 -0 -0 -0 -0 nan nan nan nan nan nan nan -0 -0 -0 -0 nan nan nan nan nan nan nan nan nan nan nan -0 nan nan nan nan nan nan -0 -0 -0 -0 -0 -0 -0 -0 -0 -0 -0 -0 -0 -0 -0 nan nan nan nan nan nan nan nan nan nan nan nan nan nan nan nan nan nan nan -0 -0 -0 -0 -0 -0 -0 -0 -0 -0 -0 -0 -0 -0 -0 -0 -0 -0
-0 -0 -0 -0 -0 nan nan nan nan nan nan nan -0 -0 -0 -0 -0 -0 nan nan nan nan nan nan nan nan nan nan -0 -0 nan nan -0 -0 -0 -0 -0 -0 -0 -0 -0 -0 -0 -0 -0 -0 -0 -0 -0 nan nan nan nan nan nan nan nan nan nan nan nan nan nan nan nan nan nan nan nan nan -0 -0 -0 -0 -0 -0 -0 -0 -0 -0 -0 -0 -0 -0 -0 -0
-0 -0 -0 -0 -0 nan nan nan nan nan nan nan -0 -0 -0 -0 -0 -0 -0 nan nan nan nan nan nan nan nan nan -0 -0 -0 nan -0 -0 -0 -0 -0 -0 -0 -0 -0 -0 -0 -0 -0 -0 -0 -0 -0 -0 nan nan nan nan nan nan nan nan nan nan nan nan nan nan nan nan nan nan nan nan nan nan -0 -0 -0 -0 -0 -0 -0 -0 -0 -0 -0 -0 -0 -0
-0 -0 -0 nan nan nan nan nan nan nan nan nan -0 -0 -0 -0 nan nan -0 nan nan nan nan nan nan nan nan -0 -0 -0 -0 nan -1 -1 -0 -0 -0 -0 -0 -0 -0 -0 -0 -0 -0 -0 -0 -0 -0 -0 -0 nan nan nan nan nan nan nan nan nan nan nan nan nan nan nan nan nan nan nan nan nan -0 -0 -0 -0 -0 -0 -0 -0 -0 -0 -0 -0 -0 -0
-0 -0 -0 -0 -0 nan nan nan nan nan -0 -0 nan nan -0 nan nan nan nan nan nan nan nan nan nan nan nan nan -0 -0 -0 nan nan nan -0 -0 -0 -0 -0 -0 -0 -0 -0 -0 -0 -0 -0 -0 -0 -0 -0 nan nan nan nan nan nan nan nan nan nan nan nan nan nan nan nan nan nan nan nan nan -0 -0 -0 -0 -0 -0 -0 -0 -0 -0 -0 -0 -0 -0
-0 -0 -0 -0 -0 -0 -0 -0 -0 -0 -0 -0 -0 -0 nan nan nan nan nan nan nan nan nan -0 -0 -0 nan nan nan nan nan nan nan nan -0 -0 nan nan -0 -0 -0 -0 -0 -0 -0 -0 -0 -0 -0 -0 -0 nan nan nan nan nan nan nan nan nan nan nan nan nan nan nan nan nan nan nan nan nan -0 -0 -0 -0 -0 -0 -0 -0 -0 -0 -0 -0 -0 -0
-0 -0 -0 -0 -0 -0 -0 -0 -0 -0 -0 -0 -0 -0 nan nan nan nan nan nan nan nan nan nan nan nan -0 -0 -0 -0 -0 -0 -0 -0 -0 -0 -0 -0 -0 -0 -0 -0 -0 -0 -0 -0 -0 -0 -0 -0 -0 nan nan nan nan nan nan nan nan nan nan nan nan nan nan nan nan nan nan nan nan nan -0 -0 -0 -0 -0 -0 -0 -0 -0 -0 -0 -0 -0 -0
-0 -0 -0 -0 -0 -0 -0 -0 -0 -0 -0 -0 nan nan nan nan nan nan nan nan nan nan nan nan nan nan nan nan -0 -0 -0 -0 -0 -0 -0 -0 nan nan nan -0 -0 -0 -0 nan nan nan nan -0 -0 -0 -0 -0 nan nan nan nan nan nan nan nan nan nan nan nan nan nan nan nan nan nan nan nan nan nan -0 -0 -0 -0 -0 -0 -0 -0 -0 -0 -0 -0
-0 -0 -0 -0 -0 -0 -0 -0 -0 -0 nan nan nan nan nan nan nan nan nan nan nan nan nan nan nan nan nan nan nan nan nan nan nan nan nan nan nan nan nan nan nan nan nan nan nan nan -0 -0 -0 -0 -0 -0 -0 -0 nan nan nan nan nan nan nan nan nan nan nan nan nan nan nan nan nan nan nan nan -0 -0 -0 -0 -0 -0 -0 -0 -0 -0 -0 -0
-0 -0 -0 -0 -0 -0 -0 -0 nan nan nan nan nan nan nan nan nan nan nan nan nan nan nan nan nan nan nan nan nan nan nan nan nan nan nan nan nan nan nan nan nan nan nan nan nan nan -0 -0 -0 -0 -0 -0 -0 -0 nan nan nan nan -0 nan nan nan nan nan nan nan nan nan nan nan nan -0 -0 -0 -0 -0 -0 -0 -0 -0 -0 -0 -0 -0 -0 -0
-0 -0 -0 -0 -0 -0 -0 -0 nan nan nan nan nan nan nan nan nan nan nan nan nan nan nan nan nan nan nan nan nan nan nan nan nan nan nan nan nan nan nan nan nan nan nan nan nan nan -0 -0 -0 -0 -0 -0 -0 -0 nan nan nan nan nan nan nan nan nan nan nan nan nan nan nan nan -0 -0 -0 -0 -0 -0 -0 -0 -0 -0 -0 -0 -0 -0 -0 -0
-0 -0 -0 -0 -0 -0 -0 -0 -0 -0 -0 -0 -0 -0 nan nan nan nan -5 nan nan nan nan nan nan nan nan nan nan nan nan nan nan nan nan nan nan nan nan nan nan nan nan nan nan nan -0 -0 -0 -0 nan -0 -0 -0 nan nan nan nan nan nan nan nan nan nan nan nan nan nan nan nan nan -0 -0 -0 -0 -0 -0 -0 -0 -0 -0 -0 -0 -0 -0 -0
-0 -0 -0 -0 -0 -0 -0 -0 -0 -0 -0 -0 -0 -0 nan nan nan nan nan nan nan nan nan nan nan nan nan nan nan nan nan nan nan nan nan nan nan nan nan nan nan nan nan nan nan nan nan nan nan nan nan -0 -0 -0 nan nan nan nan nan nan nan nan nan nan nan nan nan nan nan nan -0 -0 -0 -0 -0 -0 -0 -0 -0 -0 -0 nan -0 -0 -0 -0
nan -0 -0 -0 -0 -0 -0 -0 -0 -0 -0 -0 nan nan nan nan nan nan nan nan nan nan nan nan nan nan nan nan nan nan nan nan nan nan nan nan -7 -7 nan nan nan nan nan nan nan nan nan nan nan nan nan -0 nan nan nan nan nan nan nan nan nan nan nan nan nan nan nan nan nan nan -0 -0 -0 -0 -0 -0 nan nan nan nan nan nan nan nan nan -0
nan -0 -0 -0 -0 -0 -0 -0 nan nan nan -0 nan nan nan nan nan nan nan nan nan nan nan nan nan nan -0 nan nan nan nan nan nan nan nan nan nan nan nan nan nan nan nan nan nan nan nan nan nan nan nan nan nan nan nan nan nan nan nan nan nan nan nan nan nan nan nan nan nan nan -0 -0 -0 -0 -0 nan nan nan nan nan nan nan nan nan nan nan
-0 -0 -0 -0 -0 -0 -0 -0 nan nan nan nan nan nan nan nan nan nan nan nan nan nan nan nan nan nan nan nan nan nan nan nan nan nan nan nan nan nan nan nan nan nan nan nan nan nan nan nan nan -0 -0 nan nan nan nan nan nan nan nan nan nan nan nan nan nan nan nan nan -0 -0 -0 -0 -0 -0 -0 nan nan nan nan nan nan nan nan -0 -0 -0
-0 -0 -0 -0 -0 -0 -0 nan nan nan nan nan nan nan nan nan nan nan nan nan nan nan nan nan nan nan nan nan nan nan nan nan nan nan nan nan nan nan nan nan nan nan nan nan nan nan nan nan nan nan nan nan nan nan nan nan nan nan nan nan nan nan nan nan nan nan nan -0 -0 -0 -0 -0 -0 -0 nan nan nan nan nan nan nan nan nan nan nan nan
-0 -0 -0 -0 -0 -0 nan nan nan nan nan nan nan nan nan nan -0 -0 nan nan nan nan nan nan nan nan nan nan nan nan nan nan nan nan nan nan -0 -0 nan nan nan nan nan nan nan nan nan nan nan nan nan nan nan nan nan nan nan nan nan nan nan nan nan nan nan nan nan nan -0 -0 -0 -0 -0 -0 -0 -0 nan nan nan nan nan nan nan nan nan nan
-0 -0 -0 -0 -0 -0 -0 nan nan nan nan nan nan nan nan nan nan nan nan nan nan nan nan nan nan nan nan nan nan nan nan nan nan nan nan nan -0 -0 nan nan nan nan nan nan nan nan nan nan nan nan nan nan nan nan -0 nan nan nan nan nan nan nan nan nan nan nan nan nan -0 -0 -0 -0 -0 -0 -0 -0 -0 -0 nan nan nan nan nan nan nan nan
-0 -0 -0 -0 -0 -0 nan nan nan nan nan nan nan nan nan nan nan nan nan nan nan nan nan nan nan nan nan nan nan nan nan nan nan nan nan -1 nan nan nan nan nan nan nan nan nan nan nan nan nan nan nan nan nan nan nan nan nan nan nan nan nan nan nan nan nan nan -0 -0 -0 -0 -0 -0 -0 -0 -0 -0 -0 -0 nan nan nan nan nan nan nan nan
Wind_Speed
2 1 1 2 2 2 2 2 2 3 4 5 5 5 5 6 6 7 8 8 8 8 7 7 7 8 9 11 13 15 16 17 17 17 17 17 18 18 18 18 18 19 19 19 20 20 20 21 22 22 23 23 24 24 24 23 23 23 23 23 23 23 23 23 23 23 23 24 24 24 25 25 25 26 26 26 26 26 26 26 26 25 25 25 25 25
2 1 1 2 2 3 3 3 3 3 5 6 6 7 7 7 7 6 6 7 7 7 7 7 7 8 9 10 12 14 15 16 17 17 17 18 18 18 18 18 19 19 19 19 20 20 21 21 22 23 23 24 24 24 23 23 23 22 22 22 22 22 22 22 22 23 23 23 24 24 24 25 25 25 25 26 26 26 26 27 26 26 26 26 26 26
2 2 2 1 2 2 4 4 4 4 6 7 8 8 9 9 7 6 6 6 6 6 6 6 6 7 8 9 11 13 15 16 17 17 17 18 18 18 18 19 19 19 19 19 20 20 21 22 23 23 24 24 23 23 23 22 22 22 22 22 22 22 22 22 22 22 23 23 23 24 24 24 24 25 25 25 25 25 26 26 26 26 26 26 26 27
3 3 3 1 2 3 5 5 5 5 6 7 9 9 10 8 7 6 6 6 6 6 6 6 6 6 7 8 9 12 14 16 17 17 18 18 18 18 19 19 19 19 19 19 20 21 21 22 23 23 23 23 23 22 22 22 22 22 22 22 22 22 22 22 22 22 22 23 23 23 23 23 23 24 24 24 24 24 25 25 25 25 25 25 26 26
3 2 2 2 3 4 5 5 5 6 6 7 8 8 8 7 7 6 6 6 6 6 5 5 6 6 6 7 8 11 14 16 17 17 18 18 18 18 18 18 18 19 19 19 20 21 22 23 23 23 23 23 22 22 22 22 21 21 21 21 22 22 22 22 22 22 22 22 22 22 23 23 23 23 23 23 24 24 24 24 24 24 24 24 24 24
3 2 2 3 3 4 5 5 5 6 6 7 7 7 7 7 6 6 6 6 6 5 5 5 5 6 7 7 9 11 14 15 16 17 17 17 18 18 18 18 18 18 19 19 20 21 22 23 23 23 22 22 22 21 21 21 21 21 21 21 22 22 22 22 22 22 22 22 22 22 22 22 23 23 23 23 23 23 22 22 22 23 23 23 23 23
4 3 3 3 4 4 5 5 5 6 6 6 6 6 6 6 6 6 6 5 5 4 4 4 5 6 7 8 9 11 12 13 14 15 16 16 17 17 17 17 17 18 18 19 20 22 22 23 22 22 22 21 21 21 21 21 21 21 21 22 22 22 22 22 22 22 22 22 22 22 22 22 22 23 23 23 22 22 22 22 22 23 23 23 23 24
5 4 4 5 5 5 5 5 5 5 6 6 6 6 6 5 5 5 6 5 4 4 4 4 5 6 7 7 8 9 9 10 10 11 12 13 14 14 15 15 16 17 18 19 21 22 22 22 22 21 21 21 21 21 21 21 21 21 22 22 22 22 22 22 22 22 22 22 22 22 22 22 22 22 22 22 22 22 22 23 23 23 23 24 24 24
6 6 6 5 5 6 6 5 5 5 5 6 6 7 7 6 5 5 4 4 4 4 4 4 5 6 6 7 7 7 8 8 8 8 9 10 10 11 13 14 15 16 18 20 21 21 22 21 21 20 20 20 21 21 21 21 21 21 22 22 22 22 22 22 22 22 22 22 22 22 22 22 22 22 22 22 22 22 23 23 23 23 23 24 24 24
6 7 6 6 5 5 6 6 6 5 5 5 6 6 6 7 6 6 5 5 4 3 3 4 6 6 7 6 7 7 7 8 9 10 11 11 12 12 12 12 13 15 18 19 20 21 20 20 20 20 20 20 20 21 21 21 21 21 22 22 22 22 22 22 22 22 23 23 22 22 22 22 22 22 22 22 22 22 23 23 23 23 23 24 24 24
6 6 6 6 5 5 5 6 6 5 4 5 5 4 4 5 5 6 7 6 5 4 4 4 5 6 6 6 6 6 7 7 8 9 10 11 12 12 12 12 13 15 17 18 18 19 18 18 19 19 19 20 20 20 21 21 21 21 21 21 22 22 22 22 22 23 23 23 23 23 22 22 22 22 22 22 22 23 23 23 23 23 23 24 24 24
6 5 5 5 5 5 5 5 5 4 4 4 4 4 4 4 4 5 6 7 7 6 6 5 5 5 6 6 6 6 6 6 6 6 6 7 7 8 8 9 11 12 14 14 15 15 16 17 17 18 18 18 19 20 20 20 21 21 21 21 21 22 22 22 22 23 23 23 23 22 22 22 22 22 22 22 23 23 23 23 23 23 24 24 24 24
5 4 4 5 5 5 5 5 5 4 4 4 5 6 5 3 3 3 5 6 7 7 6 6 5 5 6 6 6 5 6 6 6 5 4 4 5 5 5 6 7 8 9 9 9 10 12 14 15 16 16 17 18 19 20 20 20 21 21 21 21 22 22 22 23 23 23 23 22 22 22 22 23 23 23 23 23 23 23 23 23 23 24 24 24 24
5 5 4 5 6 6 5 5 5 5 5 5 5 6 6 4 3 4 5 6 6 6 6 6 6 6 5 6 6 6 5 5 4 4 4 4 4 5 5 6 7 7 7 7 7 8 10 11 11 12 14 15 17 18 18 19 20 21 21 21 21 22 22 22 22 22 22 22 22 22 22 22 22 22 22 22 22 22 23 23 23 23 23 23 23 22
5 5 6 7 6 6 5 6 6 7 7 6 6 6 5 5 4 5 6 7 7 6 6 7 7 6 5 5 5 5 4 3 3 4 4 4 4 5 5 6 6 7 6 7 7 8 9 9 9 9 11 13 15 16 17 18 20 21 21 21 21 22 22 22 22 22 22 22 22 22 22 22 22 22 22 22 22 22 23 23 24 24 23 23 22 22
5 6 7 7 7 7 6 6 6 7 7 6 6 5 6 6 6 5 6 7 6 5 5 6 6 6 5 4 3 2 2 2 2 3 4 5 5 5 5 6 6 7 6 7 7 7 7 8 8 9 10 13 15 18 19 19 20 21 21 21 21 21 22 22 22 22 22 22 22 22 22 22 22 22 22 22 22 22 23 23 24 24 24 23 23 22
5 5 6 7 7 7 7 6 6 7 7 6 6 5 6 6 6 5 5 6 5 5 4 5 5 5 4 3 2 2 2 2 2 3 4 6 6 5 5 5 6 7 7 7 7 7 7 7 7 8 9 13 16 18 20 20 20 20 21 21 21 21 21 22 22 22 22 22 22 22 22 22 22 22 22 22 22 23 23 23 24 24 24 24 24 24
5 5 6 7 7 7 7 7 6 6 6 6 6 6 6 6 5 5 5 5 5 5 5 5 5 5 5 4 2 2 3 1 2 3 5 6 6 5 5 5 6 6 7 7 7 7 7 7 7 8 10 15 17 19 20 20 20 20 20 21 21 21 21 22 22 22 22 22 22 22 22 22 22 22 22 22 22 23 23 23 24 24 24 24 24 24
5 5 6 6 6 6 7 6 6 6 6 6 6 7 6 6 5 5 6 6 6 6 6 6 6 6 6 6 3 0 3 1 2 3 5 6 6 6 5 5 5 6 7 7 7 7 7 7 8 11 13 16 18 19 19 19 20 20 20 21 21 21 21 22 22 22 22 22 22 22 22 22 22 22 22 23 23 23 23 23 23 24 24 24 24 24
7 7 6 7 7 7 7 7 7 6 7 7 6 6 6 6 6 6 6 6 6 6 6 7 7 7 7 6 4 1 3 2 2 3 4 6 6 6 5 5 5 6 7 7 6 6 7 7 8 10 13 15 17 18 19 19 19 20 20 21 21 21 22 22 22 22 22 22 22 22 22 22 22 22 23 23 23 23 23 23 24 24 24 24 24 24
8 8 7 6 6 7 6 6 7 7 8 7 6 5 6 6 6 6 7 7 7 7 7 7 7 7 5 5 3 2 3 2 2 2 3 4 5 5 3 4 5 6 7 7 7 7 7 7 7 8 10 14 16 17 18 19 19 20 20 21 21 22 22 22 22 22 22 22 22 22 22 22 22 22 23 23 23 23 23 24 24 24 24 24 24 25
7 8 8 8 7 7 7 8 8 9 9 8 7 6 6 6 7 7 7 7 7 7 7 7 5 4 3 3 2 2 1 1 1 2 2 4 5 5 3 3 4 6 7 7 7 7 7 7 7 8 10 14 16 17 18 18 19 20 20 21 21 22 22 22 22 22 22 22 22 22 22 22 22 22 23 23 23 23 23 23 24 24 24 24 25 25
7 8 8 8 7 7 8 8 8 8 8 8 8 7 6 7 7 8 7 7 6 6 5 4 3 2 2 1 2 1 1 1 1 1 2 4 5 5 3 4 5 6 7 7 7 7 8 7 7 8 10 13 15 16 17 18 19 20 20 21 21 22 22 22 22 22 22 22 22 22 22 22 22 22 22 22 23 23 23 23 23 24 24 24 25 25
8 8 8 7 7 7 7 7 7 7 7 7 7 7 7 7 7 7 5 4 4 3 2 1 1 1 2 2 2 2 1 1 2 2 2 4 5 5 4 4 5 7 7 7 7 7 8 8 7 7 8 11 14 15 17 18 19 20 20 21 21 22 22 22 22 22 22 22 22 22 22 22 22 22 22 22 22 22 23 23 23 24 24 24 25 25
8 8 8 8 8 9 9 9 9 8 8 7 7 7 7 7 7 6 3 2 1 1 1 2 3 3 2 2 1 1 1 2 2 2 2 3 4 5 4 4 5 6 7 7 7 7 8 8 7 7 7 9 12 14 16 17 18 20 20 21 21 21 22 22 22 22 22 22 22 22 22 22 22 22 22 22 22 22 22 23 23 24 24 25 25 25
11 11 12 13 14 14 15 15 15 14 14 11 9 6 6 5 4 3 2 2 2 2 3 4 4 4 2 1 1 1 1 2 2 2 2 2 4 4 4 4 5 6 7 7 7 7 8 8 8 8 7 8 10 12 15 17 18 19 20 21 21 21 21 21 21 22 22 22 22 22 22 22 22 21 22 22 22 22 22 23 23 24 24 24 24 23
19 19 20 19 18 18 18 18 19 20 21 18 15 12 9 5 3 3 3 3 3 3 4 4 5 4 2 1 1 1 1 1 1 2 1 2 3 4 4 4 5 6 7 7 7 7 8 8 8 7 7 7 8 10 14 16 18 19 19 20 20 20 20 21 21 21 22 22 22 22 21 21 21 21 21 22 22 22 22 23 23 23 23 22 20 18
18 18 18 18 17 17 17 18 18 18 19 19 18 16 11 6 4 4 4 2 2 3 4 5 4 3 2 2 1 1 1 1 1 1 1 1 3 4 4 4 5 6 7 6 7 7 8 7 7 7 7 7 8 9 12 15 16 17 18 18 19 19 20 20 21 21 21 22 21 21 21 21 21 21 21 21 22 22 22 23 23 22 21 18 14 12
12 12 12 12 13 14 14 14 14 15 16 17 16 14 9 5 4 5 3 1 2 3 4 3 3 2 2 2 2 2 2 1 1 2 1 2 3 3 4 4 5 5 6 6 6 6 6 6 6 6 7 8 8 9 10 12 13 14 14 16 17 18 19 20 20 21 21 21 21 21 21 21 21 21 21 21 22 22 22 23 22 20 16 13 11 10
6 6 7 8 9 10 10 10 10 11 13 14 15 13 9 5 4 4 2 2 2 3 4 3 2 2 2 2 2 2 1 1 2 2 1 2 3 3 4 4 5 5 5 5 5 5 5 5 5 6 7 8 9 9 8 9 10 10 10 12 14 15 17 19 20 21 21 21 20 20 21 21 21 21 21 21 21 22 22 22 20 17 11 11 10 10
4 4 4 5 6 6 6 6 7 8 10 11 11 10 8 5 4 3 2 2 3 3 3 3 2 2 2 2 2 1 1 1 2 2 2 2 3 3 4 5 5 5 5 4 4 5 6 5 5 6 7 8 8 8 8 8 8 8 8 9 10 12 15 17 19 19 19 19 20 20 20 20 21 21 21 21 21 21 21 22 19 16 11 10 10 11
3 3 3 4 4 4 4 5 5 5 6 6 7 7 6 5 3 2 2 3 3 3 2 2 2 2 2 2 2 2 1 0 1 2 2 2 3 3 3 4 5 5 4 4 4 4 5 5 6 6 7 8 8 8 8 8 8 8 8 8 8 10 14 15 16 16 16 17 18 19 19 20 20 20 20 20 21 21 21 21 20 16 11 10 10 11
4 4 3 4 4 3 3 4 4 4 4 4 5 5 5 4 3 2 2 2 2 2 2 2 2 2 2 2 2 2 2 1 1 1 2 2 2 3 3 4 4 5 5 4 4 4 4 5 6 7 8 8 8 8 8 8 8 8 8 8 8 9 11 12 12 12 12 14 15 16 17 18 18 19 19 20 20 20 21 22 21 19 15 12 11 11
4 4 4 4 4 4 4 4 4 4 4 4 4 4 3 3 2 2 2 2 2 2 2 2 2 2 2 2 2 2 2 1 1 2 2 2 2 3 3 4 4 5 5 5 4 5 5 6 6 7 7 7 7 7 7 7 7 7 7 8 8 8 9 9 10 10 11 11 11 11 12 13 15 16 17 18 19 19 21 22 22 22 20 15 12 11
4 4 5 4 4 4 5 5 4 4 4 4 4 3 3 2 2 1 0 0 1 1 1 1 1 1 1 2 2 2 2 1 1 2 3 2 2 2 3 3 4 4 5 5 5 5 5 6 7 8 7 8 7 7 6 7 7 7 7 7 8 8 8 9 9 9 10 10 10 9 10 10 11 12 13 15 17 19 21 22 23 23 22 19 16 13
4 4 5 4 5 5 5 5 5 5 5 4 4 3 3 2 1 0 1 1 0 1 1 1 1 1 1 2 2 3 3 2 2 2 3 2 2 2 3 3 3 4 5 5 5 5 5 6 7 8 8 8 7 7 6 7 7 7 7 8 8 8 8 8 8 9 9 9 9 9 9 9 10 11 12 15 18 20 22 22 22 22 21 21 19 17
5 5 5 5 5 5 5 5 5 5 5 5 4 3 2 1 0 0 1 1 1 1 2 2 2 2 2 2 3 3 3 3 3 3 3 2 2 2 3 3 3 4 4 5 6 6 6 7 7 8 8 7 7 6 7 7 8 8 8 8 8 8 8 8 8 8 8 9 9 9 10 10 10 11 12 16 18 18 19 20 20 20 20 20 20 19
5 5 5 5 4 5 5 5 5 5 5 5 5 4 2 1 0 0 1 1 1 0 1 1 2 2 3 3 4 4 4 4 4 4 4 3 2 2 3 3 4 4 4 5 5 6 6 7 7 8 7 7 7 8 8 8 8 8 9 8 8 8 8 8 8 8 8 9 10 10 11 10 10 10 11 12 13 13 13 13 14 15 17 17 17 18
5 6 6 5 5 5 5 5 5 5 5 4 4 2 1 0 0 1 1 1 1 0 1 1 2 2 2 3 4 4 4 4 4 4 3 2 2 2 3 4 4 5 5 4 4 5 6 6 6 7 7 7 8 8 8 8 8 9 9 9 9 8 7 8 8 8 8 9 10 10 10 10 10 10 10 11 11 11 11 11 12 12 13 12 13 14
6 6 6 6 5 5 5 6 5 4 3 3 3 1 0 1 1 1 2 2 2 1 1 2 2 2 2 2 2 2 3 3 3 3 2 2 1 2 2 4 4 5 5 4 4 4 6 6 7 8 8 7 8 8 8 8 8 9 9 8 7 7 8 8 8 8 8 8 9 9 10 10 10 10 11 11 11 11 11 10 11 11 11 10 10 10
6 6 6 6 6 6 6 5 4 3 2 2 2 1 1 1 1 2 2 2 2 1 0 1 1 1 1 1 1 1 1 2 2 2 1 1 1 1 2 3 4 4 5 5 5 5 6 7 8 8 8 8 8 9 9 9 9 10 10 8 8 9 10 10 9 8 8 8 9 9 10 10 11 11 11 11 11 10 11 11 11 11 11 9 9 9
7 7 6 6 6 5 5 4 4 3 2 2 2 2 1 1 1 1 2 2 1 1 2 2 1 1 1 1 1 1 1 1 1 1 1 1 1 2 3 3 3 3 3 4 5 6 6 7 8 8 8 8 7 8 8 9 9 9 9 8 9 10 10 9 8 7 8 9 9 9 10 10 10 10 11 11 11 11 11 11 12 12 11 9 9 8
6 6 6 6 6 5 5 5 5 4 3 2 2 1 1 1 1 0 1 1 1 2 2 1 1 1 1 1 1 2 2 1 1 2 2 1 2 3 3 3 3 3 3 4 5 6 7 8 8 8 7 7 7 7 8 9 9 8 8 8 8 8 7 7 8 8 9 9 9 9 9 9 10 10 10 11 10 10 10 11 12 12 11 9 9 8
6 6 6 5 5 4 4 4 4 3 3 2 2 1 1 1 1 1 2 1 1 1 1 1 0 0 0 1 1 2 2 3 3 3 3 3 2 3 3 3 3 3 3 3 5 6 8 8 7 7 6 6 6 7 8 8 8 8 8 8 8 8 7 7 9 10 9 9 9 9 9 10 10 10 10 10 10 9 9 9 9 9 10 9 8 8
5 5 5 5 4 4 4 4 3 3 2 2 1 1 1 1 1 1 1 1 1 1 1 0 1 1 2 1 1 1 2 3 3 3 3 4 5 4 3 3 3 3 4 4 5 6 7 7 7 7 6 6 6 6 7 7 8 8 8 9 9 9 9 9 9 9 9 10 9 10 10 11 11 10 10 10 9 9 9 9 9 9 9 8 7 7
5 5 5 5 5 5 5 4 3 2 1 1 1 1 1 1 1 1 1 1 1 1 1 1 1 2 3 3 2 2 2 3 3 3 3 4 4 4 3 3 3 4 4 5 6 7 7 7 7 7 6 6 6 6 6 7 7 7 8 9 9 9 9 9 8 8 9 9 10 10 11 12 11 10 10 10 10 10 9 9 8 8 8 8 8 8
5 5 6 5 5 5 4 3 2 1 1 1 1 1 1 1 1 1 1 1 1 1 1 1 1 1 2 2 2 2 3 3 4 4 4 4 4 3 3 3 4 5 5 6 7 7 7 7 7 7 6 6 6 6 6 6 6 7 8 8 8 8 8 8 8 8 8 9 9 11 12 12 11 10 10 10 10 9 9 8 8 7 7 7 7 8
6 6 6 6 5 4 3 2 2 1 1 1 1 1 1 1 1 1 2 1 1 1 1 0 0 1 1 1 1 2 3 3 4 4 4 4 4 4 4 4 4 5 6 6 7 7 7 7 7 7 6 5 5 5 5 6 6 7 7 8 8 8 9 9 8 8 8 9 10 11 12 10 9 9 10 10 9 9 9 9 8 7 6 6 7 7
6 6 6 5 5 4 3 2 1 1 1 0 0 1 1 2 2 2 2 1 1 1 1 0 1 1 1 1 1 2 3 3 3 4 4 4 5 5 5 5 6 6 6 5 5 5 5 6 6 6 5 5 4 5 6 6 7 7 7 7 7 8 8 8 8 9 9 10 11 12 11 9 8 8 9 9 9 10 10 9 9 8 7 6 7 7
6 6 6 5 5 4 2 1 1 1 0 0 0 1 1 1 2 2 2 1 1 1 0 0 1 1 2 2 2 2 3 3 3 4 4 4 4 5 5 6 7 8 7 6 5 4 4 3 3 3 4 5 5 4 5 6 7 7 7 7 7 7 8 8 8 9 9 10 11 11 11 9 8 7 7 8 9 10 10 9 9 8 8 7 7 7
6 6 5 5 4 3 2 1 1 1 0 0 0 0 1 1 1 1 1 1 1 0 0 0 1 1 2 2 2 3 3 3 3 4 4 4 4 5 5 6 7 8 8 7 6 6 5 4 3 1 2 4 3 3 4 6 7 8 7 7 7 7 7 8 8 9 10 10 10 10 10 9 8 7 7 7 8 8 9 9 9 9 8 8 7 7
Wind_Direction
256 260 208 212 238 257 253 222 230 257 272 276 279 281 282 283 284 285 285 285 286 286 285 285 288 291 294 298 302 305 307 308 309 309 310 309 310 310 311 312 313 313 313 313 313 314 314 315 316 317 318 318 318 318 318 318 318 318 319 319 319 319 319 319 318 317 315 314 313 312 311 311 310 309 309 309 308 308 307 307 306 306 306 306 305 305
244 248 224 202 228 256 269 239 229 243 267 276 280 283 285 285 285 284 282 280 279 279 280 283 287 289 291 295 299 303 305 306 307 308 308 308 309 309 310 311 312 312 312 312 313 313 315 316 317 318 319 319 318 318 318 318 318 319 319 319 320 320 320 319 318 316 315 314 313 312 312 311 310 310 309 308 307 306 305 305 304 304 303 302 302 301
274 269 257 210 221 251 273 263 249 245 259 271 276 280 283 284 283 281 279 279 279 278 278 281 285 288 291 292 297 301 303 304 305 306 306 307 308 308 309 310 310 310 310 311 312 314 316 318 319 319 319 318 318 318 318 318 319 319 319 320 320 320 319 318 317 316 315 314 313 312 312 311 311 310 309 307 306 304 303 302 301 300 299 299 298 298
281 277 273 259 247 255 267 272 269 263 261 268 273 276 277 278 277 275 274 276 278 279 278 278 280 284 288 291 295 299 301 303 304 305 305 306 306 307 308 308 308 308 309 310 312 315 317 318 319 319 319 318 318 317 318 318 319 319 319 320 320 320 319 318 317 315 314 313 312 311 311 310 309 308 307 306 304 303 301 300 299 298 298 298 297 297
275 275 281 284 278 272 269 272 272 272 270 271 272 272 272 270 270 270 271 272 272 273 274 274 276 280 286 290 294 297 299 301 302 303 303 304 304 304 305 305 305 306 308 310 313 315 317 318 318 318 318 317 317 318 318 318 319 319 320 320 320 319 319 317 316 315 313 312 311 310 310 309 308 307 306 304 303 303 302 301 301 300 300 300 300 300
281 282 289 288 287 286 284 278 275 276 277 274 271 268 266 264 265 266 268 267 267 267 269 273 278 282 285 287 291 295 297 299 300 300 300 300 301 301 301 302 303 304 307 310 313 315 317 317 317 317 317 317 318 318 318 318 319 319 320 320 320 319 318 316 315 314 313 312 311 311 310 309 308 307 306 306 306 306 306 306 306 305 306 305 305 304
284 283 285 284 283 284 285 281 278 277 279 279 276 271 264 260 258 257 257 259 261 264 267 273 278 282 285 286 289 292 295 296 296 296 296 296 297 297 298 299 300 303 307 311 313 315 316 316 316 316 317 317 317 317 318 318 318 319 319 319 319 318 316 315 314 313 312 312 312 311 311 310 309 309 309 309 310 311 311 311 310 310 309 308 307 306
284 285 284 284 285 285 284 280 276 273 273 277 280 279 273 263 254 250 249 248 249 254 264 272 277 280 283 286 288 289 291 293 293 292 293 292 293 294 295 297 300 304 308 311 312 313 314 314 315 315 316 316 316 316 317 317 318 318 319 318 317 316 315 313 313 312 312 312 312 312 311 311 311 311 311 312 312 312 312 311 310 309 308 307 305 304
281 284 285 283 285 288 288 283 276 270 266 270 275 279 282 279 272 263 252 246 241 243 257 272 279 282 283 285 286 286 286 285 286 287 290 291 293 294 296 299 302 306 308 310 311 311 312 312 313 313 314 314 315 315 316 316 317 317 318 317 316 314 313 312 312 312 312 313 312 312 312 312 312 312 312 312 312 311 310 309 308 307 306 305 304 303
270 275 281 280 279 280 283 285 283 276 265 265 269 274 281 285 285 281 274 264 253 246 251 267 277 283 285 284 284 284 283 281 281 283 286 289 292 295 299 302 304 306 307 308 308 309 309 309 310 311 312 312 313 314 315 316 316 316 316 315 314 313 312 312 312 312 313 313 312 312 312 312 312 312 312 311 310 309 308 307 306 305 305 304 303 302
270 274 280 281 279 274 273 280 285 285 271 264 263 263 263 269 275 280 281 278 273 264 258 262 271 280 286 285 284 283 283 282 282 282 283 286 290 293 297 300 301 303 303 304 304 305 305 306 307 308 309 310 312 313 314 315 315 315 314 313 312 312 311 312 312 313 313 313 313 313 313 313 312 312 311 310 309 308 307 307 307 306 305 305 304 303
275 279 279 280 280 279 277 280 283 283 272 265 265 262 251 241 247 261 274 279 281 281 281 278 276 275 278 281 283 282 281 281 281 282 282 284 286 290 295 298 299 300 301 301 301 301 302 303 304 306 307 309 311 312 313 313 313 313 312 311 311 311 312 312 313 313 313 313 313 314 313 313 312 311 310 310 309 309 309 309 308 308 307 306 306 306
271 274 276 279 280 280 278 279 279 275 264 263 270 276 279 262 242 245 263 273 278 283 288 287 282 276 272 273 276 278 278 277 278 278 278 278 281 288 295 298 298 298 299 298 297 297 299 301 303 304 306 308 309 311 311 312 311 311 311 311 311 312 312 313 313 313 314 314 314 314 314 313 312 311 310 310 310 310 310 310 310 309 309 309 310 310
270 270 269 270 272 272 272 275 278 281 279 277 279 283 289 286 272 262 266 270 273 277 283 282 282 280 275 270 267 267 270 274 275 274 271 275 282 290 296 296 295 294 294 294 294 295 298 301 302 303 305 307 308 309 310 310 310 311 311 311 312 312 313 313 313 314 314 314 314 314 313 312 311 310 310 311 311 312 312 311 311 311 311 312 313 313
271 275 276 278 282 285 288 291 292 292 291 290 288 286 285 279 272 268 270 273 277 281 284 283 281 279 274 269 263 258 254 259 266 272 276 280 285 290 294 291 289 288 290 291 292 295 299 301 301 302 304 306 307 308 309 310 311 311 311 312 312 312 313 314 314 315 315 314 314 313 312 311 311 311 311 312 312 313 313 312 312 312 312 313 313 313
271 277 283 289 292 294 295 295 293 291 290 288 284 279 278 276 271 268 270 276 281 285 283 283 282 281 274 263 247 228 218 225 245 270 284 288 290 291 291 288 288 289 290 292 294 297 301 301 302 302 303 305 307 308 309 310 311 311 311 312 312 313 314 315 316 316 316 315 314 313 312 312 312 312 312 313 313 313 313 312 312 312 313 313 313 313
274 282 286 288 289 289 289 288 286 284 286 285 281 275 272 272 272 270 270 274 277 280 276 279 283 285 285 271 232 184 171 203 244 274 288 292 295 295 291 287 287 289 292 294 297 300 302 302 302 303 303 305 307 308 309 310 311 311 311 312 313 315 316 317 317 317 316 315 314 313 313 313 313 313 314 314 314 313 313 312 312 313 313 313 313 313
281 282 282 282 283 284 287 287 286 285 285 285 282 276 269 265 264 265 265 266 270 273 274 273 273 275 280 280 257 166 144 197 285 296 296 296 298 299 294 284 282 286 292 296 299 301 302 301 302 303 303 305 307 308 309 309 310 310 311 313 315 317 318 318 318 317 316 316 315 314 314 314 314 314 314 314 314 313 313 312 312 312 313 313 313 313
279 276 276 278 280 282 285 286 287 287 285 283 282 280 274 267 263 262 264 263 264 266 269 269 268 267 270 274 278 86 111 64 337 312 303 300 299 299 295 284 283 287 294 299 302 303 302 301 300 301 302 304 306 307 308 309 310 311 313 315 317 318 319 319 318 318 317 316 315 315 314 314 314 314 314 314 313 313 312 312 312 312 313 313 313 313
277 276 275 280 284 286 285 284 283 284 284 284 284 282 280 276 272 268 266 263 260 257 258 263 264 264 264 268 274 1 72 44 356 316 303 299 297 295 293 290 293 297 300 301 302 303 303 302 302 302 303 304 305 307 308 310 312 314 316 317 318 319 319 319 318 318 318 317 316 316 315 315 315 314 314 314 313 313 313 313 313 313 313 313 313 313
278 276 272 275 280 284 284 284 283 284 285 286 284 281 277 277 273 268 264 260 256 252 250 253 258 263 272 283 302 5 50 24 349 319 302 296 292 291 293 297 301 302 301 301 303 305 306 304 303 302 301 303 305 307 309 311 314 316 317 318 318 319 319 319 319 319 318 318 317 316 316 315 315 315 314 314 314 313 313 313 313 313 313 313 313 312
274 275 274 273 273 275 278 282 282 282 281 280 277 273 271 271 270 268 264 261 259 258 257 259 270 291 321 324 338 0 23 4 322 302 296 291 289 290 301 307 306 304 302 304 307 309 308 305 302 300 299 302 305 308 311 313 315 317 317 318 318 319 319 319 319 319 319 318 318 317 316 316 315 315 315 314 314 314 313 313 313 313 313 313 312 312
264 269 273 270 267 266 269 274 275 275 272 268 263 260 260 262 265 268 268 269 272 279 287 304 327 351 351 301 278 266 236 190 192 232 271 283 289 295 313 318 312 306 302 306 309 310 307 303 300 298 299 303 307 310 313 315 316 317 317 318 318 319 319 320 320 320 320 319 319 318 317 316 316 315 315 315 314 314 314 314 314 314 313 313 312 312
258 262 265 263 260 259 261 264 265 265 261 257 255 254 255 257 261 265 273 284 295 306 323 334 320 274 234 228 231 231 203 166 167 192 245 276 288 298 315 318 311 305 302 306 308 308 305 302 301 300 300 306 310 312 314 315 316 316 317 318 318 319 320 320 320 320 320 320 319 319 318 317 317 316 316 315 315 315 315 314 314 313 313 312 312 312
250 252 254 254 253 252 254 257 260 261 261 259 257 257 257 257 257 260 267 275 271 240 217 231 237 238 231 222 223 216 174 154 169 196 243 276 289 297 309 313 309 305 303 305 306 306 305 304 305 305 305 308 311 313 314 315 315 316 317 318 318 319 320 320 320 320 320 320 320 319 319 318 317 317 316 316 316 315 315 314 314 313 312 312 311 311
256 256 258 262 263 263 265 268 273 279 284 287 285 277 272 264 256 245 222 208 204 213 229 246 251 250 241 232 234 227 167 155 177 205 240 276 291 298 305 309 307 304 303 305 307 308 308 308 308 309 310 311 312 313 314 314 315 316 317 317 318 319 320 320 320 321 321 321 320 320 319 319 318 317 317 316 316 315 315 314 313 312 312 312 311 311
276 280 284 287 288 289 290 294 296 298 300 303 303 303 302 299 285 261 244 230 220 221 234 252 258 260 255 259 263 254 199 172 180 197 220 271 288 295 302 309 309 307 305 306 308 310 310 309 309 311 312 313 312 312 313 314 315 316 316 317 318 319 320 320 321 321 321 321 321 320 319 319 318 318 317 316 316 315 314 313 312 312 312 312 312 311
292 300 306 308 307 306 306 306 305 304 304 303 304 305 307 306 295 281 267 244 225 230 244 258 264 270 277 282 281 269 243 211 175 159 174 259 279 289 302 311 312 310 309 309 309 310 308 307 309 311 312 313 313 313 314 315 315 315 316 317 318 319 320 320 321 321 321 321 320 320 319 319 318 317 317 316 315 314 313 312 312 312 312 312 312 310
301 306 308 307 306 304 303 301 300 300 300 300 300 300 300 292 284 282 280 240 217 231 246 249 251 254 266 273 274 264 242 210 160 141 170 257 279 291 308 314 315 315 315 313 311 309 307 308 311 314 315 315 315 315 315 316 315 315 315 317 318 319 320 320 321 321 321 320 320 319 318 318 317 316 316 315 314 313 312 313 313 313 313 313 311 308
301 301 301 301 302 303 305 305 303 302 301 300 300 299 297 285 274 273 271 201 204 223 236 233 228 227 240 259 265 263 238 179 146 150 193 270 290 303 317 317 318 320 324 321 317 312 309 312 316 318 318 317 316 315 314 315 316 315 316 318 318 319 320 321 321 320 320 319 318 317 317 316 316 315 314 314 313 313 312 313 314 314 313 311 309 307
304 302 302 303 304 306 307 306 303 302 301 301 300 299 295 282 267 253 214 188 197 212 225 227 225 223 228 249 263 270 253 146 149 164 211 276 297 310 319 317 318 321 329 327 320 315 313 314 317 320 320 317 315 313 314 314 315 316 318 318 318 317 319 320 320 319 319 318 317 316 315 315 314 313 313 312 312 312 313 314 315 315 313 311 308 306
306 299 295 296 296 295 295 294 294 295 295 296 295 293 289 277 259 226 193 186 189 198 213 222 224 224 228 242 259 275 295 48 167 195 247 285 299 308 315 314 314 317 324 323 317 311 309 311 315 319 320 315 313 312 313 313 315 317 319 318 316 315 318 319 319 318 317 316 316 315 314 313 313 312 311 311 311 312 313 314 315 315 313 310 307 306
305 297 291 289 286 283 280 280 280 281 284 287 290 290 286 274 252 219 189 184 185 191 203 210 211 214 224 244 259 273 287 288 287 292 307 306 303 304 310 309 310 312 316 314 309 302 297 302 308 313 314 313 312 311 311 312 315 318 320 318 315 314 316 317 316 316 314 314 314 314 313 312 311 311 310 311 311 312 313 314 314 314 313 310 307 306
302 297 293 292 290 287 285 282 280 280 282 288 293 294 285 274 255 227 192 185 189 200 209 207 201 196 202 234 257 270 276 273 303 329 339 324 309 304 307 305 307 310 313 312 309 304 296 300 305 309 310 309 308 308 309 312 316 319 320 316 313 312 313 314 314 312 312 312 312 311 311 311 310 310 310 311 311 312 312 313 313 313 312 310 308 305
298 294 293 295 297 299 298 297 296 296 298 303 306 304 291 278 271 261 205 191 211 229 243 238 220 204 199 239 267 281 287 285 321 342 344 330 315 304 302 302 306 310 311 309 309 308 304 304 306 308 308 307 307 306 308 313 317 318 316 314 311 310 310 310 310 309 309 310 310 309 309 309 309 309 310 310 311 311 311 312 312 312 311 310 308 305
298 296 298 301 304 306 306 308 309 311 312 315 316 312 298 283 275 311 38 34 328 277 268 271 270 262 248 263 277 286 296 303 317 327 335 329 315 302 296 300 303 306 304 306 308 309 307 306 307 307 307 306 306 307 310 315 317 317 314 313 312 310 307 306 305 306 307 308 308 309 309 309 309 309 308 309 310 310 310 310 310 310 310 308 307 304
303 301 301 303 305 306 307 309 311 313 315 317 319 318 311 297 249 119 77 62 25 315 282 274 271 269 263 262 268 277 291 303 311 316 322 318 304 291 287 292 293 295 296 302 306 309 309 308 307 307 305 304 304 307 312 317 318 317 314 314 313 310 306 304 305 306 306 307 307 308 309 309 309 308 307 308 309 310 310 310 309 309 308 307 305 303
307 304 302 301 301 302 303 307 310 313 316 320 323 328 337 344 86 128 101 89 73 342 290 282 278 275 274 270 269 271 278 287 294 301 308 305 295 282 279 284 287 288 289 296 302 306 308 307 307 307 305 303 302 304 308 313 316 316 314 313 310 307 304 307 309 309 307 306 306 307 308 309 309 309 308 309 311 312 311 311 310 309 308 306 304 301
307 304 302 303 303 306 308 309 311 315 318 322 327 337 13 84 140 128 102 103 111 171 250 260 266 270 272 271 270 272 275 281 287 295 305 307 298 280 275 282 287 290 292 292 294 296 299 299 300 301 303 303 304 305 307 310 311 312 313 311 308 306 307 311 312 310 307 307 307 308 310 310 310 310 310 311 313 313 312 311 310 309 309 308 304 301
310 307 306 308 311 313 312 311 313 317 319 318 320 322 162 176 159 131 114 124 139 166 208 227 237 245 248 253 263 274 286 294 302 311 323 320 299 275 273 280 287 293 297 291 287 285 287 290 291 293 294 297 300 303 307 307 309 311 313 312 310 311 315 315 312 308 306 306 308 309 311 311 310 310 311 312 312 311 310 308 308 307 308 307 305 304
315 313 312 314 314 313 309 309 312 314 310 308 302 282 233 208 175 150 139 139 134 131 196 251 253 255 260 251 256 268 283 296 314 330 335 312 271 257 264 273 282 289 294 291 287 285 284 286 288 289 291 293 296 299 301 302 304 306 307 305 305 306 309 308 307 307 308 309 310 310 310 310 310 311 311 311 309 306 304 303 302 303 303 302 301 301
318 316 315 314 312 311 309 307 303 299 293 289 280 269 264 253 207 162 139 121 94 53 23 11 3 350 337 322 304 288 291 318 338 336 316 272 247 243 255 266 275 284 291 292 290 287 285 285 286 288 290 294 298 299 299 299 300 300 300 300 302 304 304 304 306 311 314 313 311 311 310 310 311 311 311 309 306 303 300 299 298 298 299 298 297 295
316 313 310 308 306 305 304 302 302 301 299 289 284 289 317 308 304 3 86 80 67 49 33 23 15 353 323 317 317 319 322 326 328 324 309 260 240 242 255 266 275 285 290 292 293 293 292 290 289 288 290 294 295 294 293 296 298 298 298 300 305 308 307 310 314 317 315 311 310 310 311 310 310 309 308 305 303 301 299 298 296 295 294 293 292 289
306 303 301 300 298 297 296 301 306 309 310 303 307 328 355 321 332 30 70 76 75 67 47 21 341 272 268 284 298 312 320 323 325 321 314 296 262 243 253 263 268 270 269 281 291 297 300 296 293 292 293 293 291 288 288 291 294 297 299 302 303 303 299 305 310 312 311 309 309 310 311 311 310 309 306 304 302 301 301 300 299 296 293 290 288 287
294 293 296 298 301 304 305 310 315 320 317 315 337 6 355 331 351 35 77 91 92 82 52 355 322 311 312 314 316 319 321 320 324 325 320 317 311 303 290 277 267 262 260 269 279 287 293 294 295 296 297 292 286 282 281 286 291 295 299 304 304 301 296 298 303 306 308 309 310 311 313 314 313 310 308 306 306 305 303 302 301 300 299 297 296 296
292 296 301 306 308 309 311 317 323 326 316 334 10 22 347 339 3 45 77 86 90 82 63 20 339 328 324 328 330 330 326 324 327 328 329 324 324 322 313 292 283 279 277 277 277 277 278 282 287 292 295 291 284 279 276 283 289 296 301 305 306 304 300 301 303 305 307 308 309 311 315 316 314 311 309 309 308 306 304 301 300 302 304 307 308 308
305 308 312 312 310 310 311 318 324 324 318 5 30 27 343 346 24 57 67 70 76 80 66 34 357 331 321 326 328 329 328 329 330 330 330 326 322 317 310 300 294 290 286 284 281 279 275 275 276 280 284 286 286 285 283 286 290 294 298 303 305 306 305 305 306 307 307 307 309 312 316 317 316 313 310 310 309 308 307 306 305 306 309 312 314 315
316 316 314 312 310 310 315 321 319 316 315 12 37 20 350 1 52 71 69 59 63 70 69 41 355 325 310 312 313 318 324 326 328 329 330 328 328 328 330 321 310 300 291 286 282 279 277 273 270 268 268 271 278 285 292 295 296 296 298 302 305 306 305 305 308 310 310 309 310 312 315 315 313 312 311 311 311 312 313 315 317 318 318 319 320 321
314 312 309 307 307 309 315 315 310 299 304 1 41 28 11 12 31 49 64 60 58 55 37 354 325 310 307 307 309 315 320 324 324 327 328 331 335 338 339 333 327 321 313 304 292 279 272 266 259 252 245 246 257 274 290 297 301 302 303 304 305 306 306 307 309 312 313 312 312 312 312 308 306 304 305 308 311 313 316 319 321 325 327 326 326 326
308 306 305 306 307 309 313 306 289 278 287 4 45 45 33 28 34 42 53 62 65 61 34 354 318 306 304 313 320 326 329 329 328 329 335 341 344 344 342 338 337 335 331 329 324 316 305 285 261 238 224 222 233 258 287 299 305 308 308 308 309 309 309 310 312 314 315 313 313 311 310 306 303 301 302 306 310 313 317 320 323 326 330 330 329 329
306 306 306 306 307 308 307 285 258 239 190 156 132 98 80 66 61 57 51 61 66 63 57 27 334 305 301 313 323 330 333 332 332 335 342 346 346 343 340 341 341 341 338 338 338 339 338 335 329 298 225 220 238 274 300 308 312 313 313 314 315 315 313 312 313 313 314 312 311 309 308 307 307 307 309 310 313 316 319 322 324 326 328 330 330 332